User: anonymous   Login
Location: Livonia
(42.3680°N, 83.3530°W)
Time: 18:20:22
(UTC-05:00)
Language:

MOZ.5/SAFIR/RUBIN 5/SL-8 - Orbit

View from above orbital plane
View from above orbital plane
View from above satellite
View from above satellite

Ground track
Ground track

The orbit data is extracted from the following two-line orbital elements,

1 28898U 05043G   16037.49666670  .00000200  00000-0  50788-4 0  9992
2 28898  97.8623 204.8283 0018825 312.4940  47.4670 14.60047024547356
Epoch (UTC): 06 February 2016 11:55:12
Eccentricity: 0.0018825
inclination: 97.8623°
perigee height: 680 km
apogee height: 706 km
right ascension of ascending node: 204.8283°
argument of perigee: 312.4940°
revolutions per day: 14.60047024
mean anomaly at epoch: 47.4670°
orbit number at epoch: 54735

The dashed part of the orbit path shows where the satellite is in the earth's shadow,  

DLR